Location: St. Louis
(38.6270°N, 90.1994°W)
Time: 13:24:43
(UTC-06:00)

deb Explorer IX - Pass Details

Date: 03 December 2021
Orbit: 544 x 1082 km, 38.8° (Epoch: 16 January)

Event Time Altitude Azimuth Distance (km) Brightness Sun altitude
Rises 11:11:25 0° 253° (WSW) 2,977 ? 28.5°
Reaches altitude 10° 11:13:54 10° 252° (WSW) 1,992 ? 28.6°
Maximum altitude 11:18:25 75° 167° (SSE) 600 ? 28.7°
Drops below altitude 10° 11:22:33 10° 83° (E) 1,823 ? 28.8°
Sets 11:24:44 0° 81° (E) 2,700 ? 28.9°
